View from above orbital plane
|
View from above satellite
|
Ground track
|
The orbit data is extracted from the following two-line orbital elements,
1 16182U 85097B 21022.69757589 -.00000302 00000-0 -12827-3 0 9990
2 16182 71.0018 120.2004 0009500 238.9417 229.3116 14.16251088822185
Epoch (UTC): | 22 January 2021 16:44:30 |
Eccentricity: | 0.0009500 |
inclination: | 71.0018° |
perigee height: | 831 km |
apogee height: | 845 km |
right ascension of ascending node: | 120.2004° |
argument of perigee: | 238.9417° |
revolutions per day: | 14.16251088 |
mean anomaly at epoch: | 229.3116° |
orbit number at epoch: | 82218 |
The dashed part of the orbit path shows where the satellite is in the earth's shadow,
|
|